Hayward, CA

4:35 PM PDT on April 24, 2017 (GMT -0700)
Hayward Executive

Weather History for KHWD - July, 2013

Change the Weather History Date:

Tuesday, July 30, 2013

  Actual Average Record
Temperature  
Mean Temperature 64 °F 66 °F  
Max Temperature 72 °F 73 °F 81 °F (2012)
Min Temperature 56 °F 58 °F 55 °F (2010)
Degree Days  
Heating Degree Days 1    
Month to date heating degree days 19  
Since 1 June heating degree days 66  
Since 1 July heating degree days 19  
Cooling Degree Days 0    
Month to date cooling degree days 52  
Year to date cooling degree days 152  
Since 1 June cooling degree days 105  
Growing Degree Days 14 (Base 50)    
Moisture  
Dew Point 54 °F    
Average Humidity 75    
Maximum Humidity 93    
Minimum Humidity 57    
Precipitation  
Precipitation 0.00 in - 0.00 in (2017)
Month to date precipitation 0.00  
Year to date precipitation 1.49  
Since 1 July precipitation 0.00  
Sea Level Pressure  
Sea Level Pressure 30.09 in    
Wind  
Wind Speed 8 mph (NNW)    
Max Wind Speed 18 mph    
Max Gust Speed 22 mph    
Visibility 9 miles    
Events      
T = Trace of Precipitation, MM = Missing Value Source: NWS Daily Summary

Daily Weather History Graph

Daily Weather History Graph

Search for Another Location

Airport or City:

Trip Planner

Search our weather history database for the weather conditions in past years. The results will help you decide how hot, cold, wet, or windy it might be!

Date:

Astronomy

Jul. 30, 2013 Rise Set
Actual Time 6:10 AM PDT 8:18 PM PDT
Civil Twilight 5:41 AM PDT 8:47 PM PDT
Nautical Twilight 5:05 AM PDT 9:23 PM PDT
Astronomical Twilight 4:27 AM PDT 10:01 PM PDT
Moon 12:31 AM PDT (7/30) 2:44 PM PDT (7/30)
Length of Visible Light 15h 05m
Length of Day
14h 07m
Last Quarter, 40% of the Moon is Illuminated
Jul 30
Last Quarter
Aug 6
New
Aug 14
First Quarter
Aug 20
Full
Aug 28
Last Quarter

Hourly Weather History & Observations

Time (PDT) Temp. Dew Point Humidity Pressure Visibility Wind Dir Wind Speed Gust Speed Precip Events Conditions
12:54 AM 57.9 °F 54.0 °F 87% 30.06 in 10.0 mi North 4.6 mph - N/A   Overcast
1:54 AM 57.9 °F 54.0 °F 87% 30.06 in 10.0 mi North 4.6 mph - N/A   Overcast
2:54 AM 57.9 °F 53.1 °F 84% 30.06 in 10.0 mi North 5.8 mph - N/A   Overcast
3:54 AM 57.9 °F 53.1 °F 84% 30.06 in 10.0 mi North 4.6 mph - N/A   Overcast
4:54 AM 57.9 °F 53.1 °F 84% 30.06 in 10.0 mi NE 4.6 mph - N/A   Overcast
5:54 AM 57.9 °F 53.1 °F 84% 30.08 in 10.0 mi North 4.6 mph - N/A   Overcast
6:54 AM 57.9 °F 54.0 °F 87% 30.10 in 9.0 mi NNW 3.5 mph - N/A   Overcast
7:54 AM 60.1 °F 54.0 °F 80% 30.12 in 10.0 mi NNW 3.5 mph - N/A   Overcast
8:54 AM 61.0 °F 54.0 °F 78% 30.13 in 10.0 mi NW 4.6 mph - N/A   Overcast
9:54 AM 63.0 °F 54.0 °F 72% 30.13 in 10.0 mi West 4.6 mph - N/A   Overcast
10:21 AM 62.6 °F 53.6 °F 72% 30.10 in 10.0 mi WSW 5.8 mph - N/A   Clear
10:54 AM 64.9 °F 54.0 °F 68% 30.13 in 10.0 mi WSW 6.9 mph - N/A   Clear
11:54 AM 66.9 °F 54.0 °F 63% 30.13 in 10.0 mi WNW 6.9 mph - N/A   Clear
12:54 PM 70.0 °F 55.0 °F 59% 30.12 in 10.0 mi West 5.8 mph - N/A   Clear
1:54 PM 72.0 °F 55.0 °F 55% 30.10 in 7.0 mi WNW 15.0 mph - N/A   Clear
2:54 PM 71.1 °F 55.0 °F 57% 30.10 in 7.0 mi WNW 15.0 mph - N/A   Clear
3:54 PM 70.0 °F 54.0 °F 57% 30.09 in 7.0 mi NW 15.0 mph - N/A   Clear
4:54 PM 68.0 °F 54.0 °F 61% 30.09 in 8.0 mi NW 16.1 mph - N/A   Clear
5:54 PM 66.0 °F 53.1 °F 63% 30.08 in 9.0 mi NW 15.0 mph - N/A   Clear
6:54 PM 64.0 °F 53.1 °F 67% 30.08 in 8.0 mi NNW 12.7 mph - N/A   Clear
7:54 PM 61.0 °F 53.1 °F 75% 30.08 in 9.0 mi NNW 10.4 mph - N/A   Clear
8:54 PM 59.0 °F 53.1 °F 81% 30.09 in 10.0 mi NNW 8.1 mph - N/A   Clear
9:52 PM 57.2 °F 53.6 °F 88% 30.08 in 10.0 mi North 8.1 mph - N/A   Mostly Cloudy
9:54 PM 57.0 °F 53.1 °F 87% 30.11 in 10.0 mi North 6.9 mph - N/A   Mostly Cloudy
10:54 PM 55.9 °F 53.1 °F 90% 30.11 in 10.0 mi North 6.9 mph - N/A   Scattered Clouds
11:02 PM 57.2 °F 53.6 °F 88% 30.08 in 10.0 mi North 8.1 mph - N/A   Mostly Cloudy
11:54 PM 55.9 °F 53.1 °F 90% 30.12 in 10.0 mi North 6.9 mph - N/A   Overcast